Regional Weather Roundup
Issued by NWS

Home | Current Version | Previous Version | Text Only | Print | Product List | Glossary On
Versions: 1 2 3 4 5 6 7 8 9 10 11 12 13 14 15 16 17 18 19 20 21 22 23 24 25 26 27 28 29 30 31 32 33 34 35 36 37 38 39 40 41 42 43 44 45 46 47 48 49 50
425
ASUS43 KMKX 240500
RWRWI

WISCONSIN REGIONAL WEATHER ROUNDUP
NATIONAL WEATHER SERVICE MILWAUKEE/SULLIVAN WI
1100 PM CST THU FEB 23 2017

NOTE: "FAIR" INDICATES FEW OR NO CLOUDS BELOW 12,000 FEET WITH NO
SIGNIFICANT WEATHER AND/OR OBSTRUCTIONS TO VISIBILITY.

WIZ001-002-006>008-014>016-023>028-240600-
NORTHWEST WISCONSIN

CITY           SKY/WX    TMP DP  RH WIND       PRES   REMARKS
SUPERIOR ARPT  CLOUDY    26  17  69 N7        30.01R WCI  18
ASHLAND        CLOUDY    27  18  69 N9        29.97R WCI  18
HAYWARD        CLOUDY    27  19  72 N7        29.95S WCI  19
SIREN          CLOUDY    27  20  75 NE6       29.97R WCI  21
CUMBERLAND     CLOUDY    28  21  74 N13       29.91R WCI  18
RICE LAKE      CLOUDY    29  24  80 N12       29.94R WCI  20
CHETEK         CLOUDY    30  23  75 NE7       29.91S WCI  23
LADYSMITH      CLOUDY    31  24  77 N14       29.92R WCI  20
EAU CLAIRE     NOT AVBL
MENOMONIE      CLOUDY    32  26  77 N9        29.90R WCI  25
NEW RICHMOND   CLOUDY    29  23  76 NE13      29.92R WCI  19
OSCEOLA        CLOUDY    30  23  77 N8        29.96R WCI  22
$$

WIZ003>005-009-010-017-018-240600-
NORTH CENTRAL WISCONSIN

CITY           SKY/WX    TMP DP  RH WIND       PRES   REMARKS
MANITOWISH WTR CLOUDY    25  25 100 N3        29.91R
ARBOR VITAE    CLOUDY    29  26  88 NE5         N/A  WCI  24
WOODRUFF       CLOUDY    29  26  88 NE5         N/A  WCI  24
RHINELANDER    CLOUDY    29  22  75 VRB5      29.89R WCI  24
EAGLE RIVER    CLOUDY    27  21  80 NE7       29.90R WCI  19
LAND O LAKES   CLOUDY    26  24  92 CALM      29.92R
PHILLIPS       CLOUDY    28  24  85 N12       29.89S WCI  17
TOMAHAWK       CLOUDY    29  23  77 N8        29.89S WCI  21
MEDFORD        CLOUDY    30  25  80 NE9       29.85R WCI  22
MERRILL        NOT AVBL
$$

WIZ029-030-035-036-043>047-240600-
CENTRAL WISCONSIN

CITY           SKY/WX    TMP DP  RH WIND       PRES   REMARKS
WAUSAU         CLOUDY    33  26  75 NE5       29.85R WCI  29
MOSINEE        FLURRIES  32  32 100 E13G18    29.84F WCI  22
MARSHFIELD     LGT SNOW  34  27  75 NE10      29.84R WCI  26
STEVENS POINT  CLOUDY    33  24  72 E13G21    29.86S WCI  23
WAUPACA        CLOUDY    36  27  70 NE9       29.87F WCI  29
WAUTOMA        CLOUDY    35  27  72 NE15G23   29.81F WCI  25
WISC RAPIDS    CLOUDY    36  27  69 NE13G18   29.82F WCI  27
CAMP DOUGLAS   FLURRIES  37  28  70 NE8G20    29.78F WCI  31
$$

WIZ011>013-019>022-031-037>040-048>050-240600-
NORTHEAST WISCONSIN

CITY           SKY/WX    TMP DP  RH WIND       PRES   REMARKS
ANTIGO         CLOUDY    31  26  81 NE16      29.86F WCI  20
SHAWANO        CLOUDY    35  28  77 E12       29.89F WCI  27
OCONTO         CLOUDY    33  25  72 NE7       29.93R WCI  27
STURGEON BAY   CLOUDY    33  24  69 NE10      29.93S WCI  25
GREEN BAY      CLOUDY    35  29  78 NE16      29.87F WCI  25
MANITOWOC      LGT SNOW  34  30  86 NE12G17   29.87F FOG     WCI  25
APPLETON       CLOUDY    34  25  69 NE15G22   29.83F WCI  24
CLINTONVILLE   CLOUDY    34  27  75 E14       29.88F WCI  24
OSHKOSH        FLURRIES  33  29  85 NE16      29.81F WCI  23
$$

WIZ032>034-041-042-053>061-240600-
SOUTHWEST WISCONSIN

CITY           SKY/WX    TMP DP  RH WIND       PRES   REMARKS
LA CROSSE      LGT RAIN  37  33  85 NE12      29.76F WCI  29
SPARTA         LGT RAIN  36  31  82 NE15G24   29.80F WCI  27
VIROQUA        CLOUDY    33  33  99 NE20G25   29.72F WCI  21
BOSCOBEL       LGT RAIN  34  32  92 NE15G23   29.72F FOG     WCI  24
PRAIRIE DU CHI LGT RAIN  34  33  96 NE16G22   29.68F WCI  23
PLATTEVILLE    CLOUDY    35  35  99 NE23G30   29.70F WCI  23
$$

WIZ056-057-062-063-064-067-068-240600-
SOUTH CENTRAL WISCONSIN

CITY           SKY/WX    TMP DP  RH WIND       PRES   REMARKS
REEDSBURG      LGT SNOW  32  32 100 NE15G23   29.76F WCI  22
BARABOO/DELLS  SNOW      32  32  99 NE13G21   29.80R VSB 1/2 WCI  22
LONE ROCK      LGT RAIN  34  30  86 NE8G24    29.79R FOG     WCI  27
MINERAL POINT  LGT RAIN  34  34 100 NE20G28   29.71R WCI  22
MADISON        LGT RAIN  33  30  88 NE25G31   29.74F WCI  20
MIDDLETON      CLOUDY    34  34 100 NE17G26   29.75F WCI  23
WATERTOWN      MIX PCPN  33  33 100 N13G20    29.78S WCI  23
MONROE         MIX PCPN  32  32 100 NE22G32   29.68F WCI  19
JANESVILLE     LGT RAIN  34  34 100 NE14      29.74F WCI  24
$$

WIZ051-052-058>065-066-070>072-240600-
SOUTHEAST WISCONSIN

CITY           SKY/WX    TMP DP  RH WIND       PRES   REMARKS
MILWAUKEE      LGT RAIN  37  33  85 N18G28    29.79R FOG     WCI  27
WAUKESHA       MIX PCPN  32  32 100 N15G26    29.77S WCI  22
MILWAUKEE/TIMM LGT RAIN  34  32  93 NE17G30   29.79S WCI  23
RACINE         RAIN      37  34  89 N21       29.78R WCI  26
KENOSHA        LGT RAIN  37  35  92 NE16G22   29.75R WCI  28
FOND DU LAC    LGT SNOW  33  30  88 NE20G25   29.81F FOG     WCI  21
SHEBOYGAN      LGT SNOW  33  30  88 NE25G31   29.82F FOG     WCI  20
WEST BEND      FLURRIES  32  32 100 NE20G25   29.80F WCI  20
JUNEAU         LGT SNOW  32  30  94 N22G31    29.77F WCI  19
$$

LSZ147-162-240600-
LAKE SUPERIOR

STATION/POSITION TIME  TEMP    WIND        PRES    WAVE
                       AIR SEA DIR/SP/G            HT/PER
                 (UTC) (F)     (DEG/KT/KT) (MB)    (FT/S)
DEVILS ISLAND    0400   30     360/ 21/ 23 1015.4F
PORT WING        0440   29      20/ 16/ 19 1015.6R
SAXON HARBOR     0440   32     360/  9/ 13 1015.2R
$$

LMZ867-665-643>646-240600-
LAKE MICHIGAN

STATION/POSITION TIME  TEMP    WIND        PRES    WAVE
                       AIR SEA DIR/SP/G            HT/PER
                 (UTC) (F)     (DEG/KT/KT) (MB)    (FT/S)
CHAMBERS ISLAND  0440   33      30/ 14/ 16 1013.2F
NORTHPORT PIER   0440   33      30/ 11/ 14 1014.2R
SISTER BAY       0350   33      30/  7/ 12   N/A
KEWAUNEE LAKESHO 0430   36      40/ 16/ 20 1012.8R
SHEBOYGAN LAKESH 0400   33      20/ 26/ 28 1011.3S
PORT WASHINGTON  0440   35      30/ 19/ 24 1010.8S
MILWAUKEE LAKESH 0430   36      20/ 24/ 27   N/A
KENOSHA   LAKESH 0400   36      30/ 19/ 22 1007.1
$$

TC  - TEMPERATURE IN CELSIUS
VSB - VISIBILITY IN STATUTE MILES
WCI - WIND CHILL INDEX
HX  - HEAT INDEX





USA.gov is the U.S. government's official web portal to all federal, state and local government web resources and services.